User: anonymous   Login
Location: Deer Lodge Site
(39.6809°N, 119.9392°W)
Time: 23:16:13
(UTC-07:00)
Language:

CZ-4C R/B - Orbit

View from above orbital plane
View from above orbital plane
View from above satellite
View from above satellite

Ground track
Ground track

The orbit data is extracted from the following two-line orbital elements,

1 36416U 10009D   17081.67892345 -.00000070 +00000-0 +18253-4 0  9992
2 36416 063.4389 136.0893 0378658 356.5350 003.3076 13.69513104352360
Epoch (UTC): 22 March 2017 16:17:38
Eccentricity: 0.0378658
inclination: 63.4389°
perigee height: 722 km
apogee height: 1281 km
right ascension of ascending node: 136.0893°
argument of perigee: 356.5350°
revolutions per day: 13.69513104
mean anomaly at epoch: 3.3076°
orbit number at epoch: 35236

The dashed part of the orbit path shows where the satellite is in the earth's shadow,  

DLR